Vorticity
5 5 8 9 10 11 13 13 11 13 14 19 21 20 19 20 21 20 19 17 13 11 12 15 15 14 12
7 9 10 13 12 10 11 13 13 18 18 17 19 21 23 20 20 22 25 30 27 26 24 21 23 17 17
11 14 11 11 10 10 11 16 15 16 11 12 16 18 20 21 21 18 16 16 21 23 24 26 28 26 24
12 11 11 12 13 13 15 12 14 9 9 15 21 12 18 17 18 17 17 14 13 14 17 19 22 23 27
12 12 12 13 15 12 11 11 10 12 16 14 18 18 11 14 13 19 17 14 14 13 12 12 12 16 19
12 12 14 13 10 12 9 10 11 14 13 14 16 20 12 8 7 6 8 8 6 4 5 8 10 11 12
12 15 12 10 10 11 11 9 11 15 16 15 18 19 19 12 8 8 17 14 11 10 9 10 9 5 5
12 15 10 11 13 12 11 10 13 15 16 16 19 17 17 17 18 23 17 17 19 17 19 18 19 19 19
12 11 10 11 11 13 13 9 14 15 20 11 18 16 15 17 20 21 19 11 8 8 9 11 11 9 10
12 9 10 11 14 16 11 9 12 15 13 12 16 14 17 15 17 15 8 7 14 13 13 15 15 12 15
8 9 12 14 17 15 10 9 12 13 11 13 18 18 16 14 9 9 7 9 13 13 14 10 9 8 8
8 14 15 16 19 14 11 8 13 12 11 12 14 16 13 8 11 9 7 10 7 6 6 9 10 10 12
13 15 13 15 17 14 11 10 11 12 11 8 8 8 5 3 7 6 7 10 10 8 10 13 14 15 19
14 13 14 15 16 15 12 12 10 12 12 9 6 5 7 8 8 7 9 9 8 8 5 8 13 12 14
13 12 14 13 14 16 12 10 13 13 11 9 8 6 5 5 6 7 8 7 8 9 8 8 11 11 11
13 12 14 12 12 13 13 15 14 12 12 12 14 12 11 13 15 15 10 10 11 11 10 11 9 10 10
10 12 13 13 11 10 11 11 13 14 14 12 12 12 13 16 17 15 13 13 12 12 11 9 10 11 12
Height
3050 3044 3038 3030 3024 3018 3013 3010 3006 3000 2994 2987 2981 2974 2967 2962 2955 2951 2948 2945 2944 2943 2943 2944 2946 2949 2951
3039 3033 3026 3019 3012 3006 2998 2992 2986 2980 2975 2971 2965 2960 2954 2947 2940 2935 2931 2927 2926 2925 2924 2927 2926 2928 2930
3029 3023 3017 3010 3001 2994 2987 2981 2975 2971 2964 2957 2951 2947 2941 2935 2930 2925 2920 2916 2915 2913 2912 2912 2911 2913 2915
3021 3014 3007 2999 2991 2983 2977 2972 2965 2962 2955 2947 2942 2937 2932 2926 2921 2916 2912 2909 2906 2905 2903 2902 2901 2900 2900
3010 3002 2995 2987 2980 2972 2964 2957 2954 2948 2939 2935 2930 2927 2924 2918 2913 2910 2906 2903 2901 2898 2896 2893 2892 2891 2890
2999 2991 2985 2978 2971 2964 2956 2949 2942 2941 2928 2924 2920 2917 2912 2909 2906 2903 2900 2897 2895 2892 2890 2887 2884 2882 2881
2989 2984 2976 2970 2962 2956 2948 2940 2935 2930 2921 2917 2912 2907 2903 2900 2898 2895 2892 2890 2887 2885 2881 2879 2877 2875 2873
2984 2978 2971 2962 2954 2945 2938 2933 2930 2924 2916 2909 2906 2901 2896 2893 2891 2888 2884 2882 2879 2876 2874 2871 2868 2866 2865
2975 2968 2960 2953 2945 2939 2934 2927 2923 2919 2911 2902 2899 2894 2889 2888 2886 2883 2879 2877 2874 2871 2868 2865 2863 2860 2858
2967 2960 2952 2945 2941 2934 2927 2920 2916 2912 2907 2898 2893 2888 2884 2882 2881 2879 2876 2874 2870 2866 2863 2860 2857 2853 2851
2958 2951 2946 2941 2935 2928 2922 2916 2910 2906 2900 2894 2890 2886 2882 2879 2878 2876 2872 2868 2865 2862 2859 2855 2852 2849 2844
2951 2947 2941 2934 2929 2923 2917 2912 2906 2899 2896 2890 2886 2882 2879 2876 2874 2872 2869 2865 2861 2858 2854 2850 2847 2843 2840
2946 2940 2933 2927 2921 2916 2912 2906 2902 2897 2892 2887 2883 2880 2877 2873 2869 2867 2862 2861 2858 2854 2850 2846 2841 2837 2834
2939 2932 2926 2920 2915 2909 2905 2901 2897 2894 2888 2884 2880 2876 2873 2869 2866 2862 2859 2854 2851 2848 2844 2841 2837 2832 2829
2932 2926 2920 2915 2909 2904 2899 2895 2891 2887 2884 2881 2876 2873 2869 2864 2860 2857 2853 2849 2846 2842 2838 2835 2833 2828 2824
2926 2919 2914 2909 2904 2899 2894 2890 2885 2881 2877 2873 2870 2867 2864 2862 2856 2851 2848 2843 2840 2836 2832 2828 2826 2823 2819
2921 2914 2908 2904 2899 2894 2889 2885 2880 2876 2873 2868 2863 2859 2855 2853 2852 2846 2840 2838 2833 2831 2827 2823 2819 2817 2813